User: anonymous   Login
Location: �A�n Sefra
(34.9681°N, 0.4346°E)
Time: 12:31:37
(UTC+00:00)
Language:

Cosmos 1271 Rocket - Orbit

View from above orbital plane
View from above orbital plane
View from above satellite
View from above satellite

Ground track
Ground track

The orbit data is extracted from the following two-line orbital elements,

1 12465U 81046B   19340.69769255 -.00000070  00000-0 -51778-5 0  9995
2 12465  81.2445  67.1032 0034246 182.1587 177.9499 15.14519858104035
Epoch (UTC): 06 December 2019 16:44:40
Eccentricity: 0.0034246
inclination: 81.2445°
perigee height: 499 km
apogee height: 546 km
right ascension of ascending node: 67.1032°
argument of perigee: 182.1587°
revolutions per day: 15.14519858
mean anomaly at epoch: 177.9499°
orbit number at epoch: 10403

The dashed part of the orbit path shows where the satellite is in the earth's shadow,  

DLR